Terminal Aerodrome Forecast
Issued by NWS

Home | Current Version | Previous Version | Text Only | Print | Product List | Glossary On
Versions: 1 2 3 4 5 6 7 8 9 10 11 12 13 14 15 16 17 18 19 20 21 22 23 24 25 26 27 28 29 30
000
FTUS41 KOKX 282000 AAA
TAFGON
TAF AMD
KGON 282033Z 2821/2918 32012G18KT P6SM FEW040
     FM282200 32009KT P6SM SKC
     FM290500 32004KT P6SM SCT100 BKN250
     FM291700 20006KT P6SM FEW040 BKN070=

USA.gov is the U.S. government's official web portal to all federal, state and local government web resources and services.